Regional Weather Roundup
Issued by NWS

Home | Current Version | Previous Version | Graphics & Text | Print | Product List | Glossary On
Versions: 1 2 3 4 5 6 7 8 9 10 11 12 13 14 15 16 17 18 19 20 21 22 23 24 25 26 27
000
ASUS43 KDMX 240207
RWRIA

WEATHER ROUNDUP FOR IOWA
NATIONAL WEATHER SERVICE DES MOINES IA
900 PM CDT THU OCT 23 2014

NOTE: "FAIR" INDICATES FEW OR NO CLOUDS BELOW 12,000 FEET WITH NO
SIGNIFICANT WEATHER AND/OR OBSTRUCTIONS TO VISIBILITY.

* - THESE STATIONS ARE NOT NWS STATIONS...THUS NOT UNDER NWS
QUALITY CONTROL.  THEY ALSO DO NOT REPORT WEATHER SUCH
AS PRECIPITATION OR FOG.

IAZ001>003-012>014-020>022-031>034-043>046-240300-
   NORTHWEST IOWA

CITY           SKY/WX    TMP DP  RH WIND       PRES   REMARKS
CARROLL *      CLEAR     48  46  93 W3        30.03R
CHEROKEE *     CLEAR     50  50 100 CALM      30.01S
DENISON *      CLEAR     50  45  81 SE6       30.01S
LE MARS *      CLEAR     57  46  67 SE7       29.99F
ORANGE CITY *  CLEAR     59  45  58 S7        29.99F
SHELDON *      CLEAR     54  45  71 S7        29.98F
SIOUX CITY     CLEAR     54  45  71 SE7       29.99F
SPENCER        CLEAR     48  43  82 S6        30.01
STORM LAKE *   CLEAR     55  41  58 SW7       30.03S
$$

IAZ055>058-069>071-079>083-090>094-240300-
   SOUTHWEST IOWA

CITY           SKY/WX    TMP DP  RH WIND       PRES   REMARKS
ATLANTIC *     PTCLDY    50  46  87 CALM      30.03S
AUDUBON *      CLEAR     46  41  81 CALM      30.05R
CLARINDA *       N/A     50  50 100 CALM      30.05F
COUNCIL BLFS * CLEAR     57  52  82 S5        30.02S
CRESTON *      CLEAR     55  48  76 SE3       30.05S
HARLAN  *      CLEAR     50  45  81 CALM      30.07R
LAMONI         CLEAR     59  55  87 S8        30.05S
RED OAK *      CLEAR     52  48  87 CALM      30.04S
SHENANDOAH *   CLEAR     52  50  93 CALM      30.04S
$$

IAZ047>049-059>061-072>074-084-240300-
   CENTRAL IOWA

CITY           SKY/WX    TMP DP  RH WIND       PRES   REMARKS
AMES           CLEAR     51  46  83 CALM      30.04R
ANKENY *       CLEAR     54  54 100 S3        30.03S
CHARITON *     CLEAR     55  55 100 S5        30.04S FOG
DES MOINES     PTCLDY    58  54  86 S8        30.04R
GRINNELL*      CLEAR     54  52  94 S5        30.06R FOG
KNOXVILLE *    PTCLDY    55  54  94 SE7       30.04S FOG
MARSHALLTOWN   FOG       51  50  96 SE3       30.04R VSB 1/2
PELLA *        CLEAR     55  54  94 S3        30.06S FOG
PERRY *          N/A     48  46  93 S3        30.03S
$$

IAZ004>006-015-016-023>025-035-036-240300-
   NORTH CENTRAL IOWA

CITY           SKY/WX    TMP DP  RH WIND       PRES   REMARKS
ALGONA *       CLEAR     54  45  71 S9        30.02S
CLARION *      CLEAR     50  46  87 S6        30.03R
ESTHERVILLE    CLEAR     49  41  74 S6        30.00S
FORT DODGE *   CLEAR     48  43  81 CALM      30.03S
MASON CITY     CLEAR     46  45  96 S7        30.03S
FOREST CITY *  CLEAR     46  45  93 CALM      30.01F
IOWA FALLS *     N/A     52  48  87 SE3       30.04S
$$

IAZ007>011-017>019-026>030-037>042-050>054-066-240300-
   NORTHEAST IOWA

CITY           SKY/WX    TMP DP  RH WIND       PRES   REMARKS
CEDAR RAPIDS   FOG       47  47 100 E3        30.05R VSB 1/4
CHARLES CITY * CLOUDY    50  48  93 SE7       30.04S FOG
CLINTON *      CLOUDY    54  50  87 CALM      30.08S
DECORAH *      CLOUDY    50  50 100 CALM      30.04R FOG
DUBUQUE        CLOUDY    50  49  96 W3        30.06R
MONTICELLO *   CLOUDY    52  52 100 CALM      30.06R
OELWEIN *      FOG       46  46 100 E6        30.05S VSB 1/4
WATERLOO       FOG       42  41  96 CALM      30.03S VSB 1/4
$$

IAZ064-065-067-068-078-240300-
   EAST CENTRAL IOWA

CITY           SKY/WX    TMP DP  RH WIND       PRES   REMARKS
DAVENPORT      MOCLDY    55  46  71 S6        30.05S
IOWA CITY      FOG       49  49 100 CALM      30.07R VSB 1/4
MT. PLEASANT * CLOUDY    55  50  82 S3        30.06R
MUSCATINE *    CLOUDY    57  50  77 CALM      30.05S
QUAD CITIES    CLOUDY    57  48  72 S6        30.05S
$$

IAZ062-063-075>077-085>089-095>099-240300-
   SOUTHEAST IOWA

CITY           SKY/WX    TMP DP  RH WIND       PRES   REMARKS
BURLINGTON     CLOUDY    55  52  89 S5        30.05S
FAIRFIELD *      N/A     52  50  93 CALM      30.06R
FORT MADISON * MOCLDY    55  54  94 S3        30.06S
KEOKUK *       MOCLDY    55  52  88 S5        30.05S
OSKALOOSA *    FOG       49  49  97 CALM      30.05S VSB<1/4
CENTERVILLE *  FOG       46  46 100 CALM      30.07S VSB 1/4
OTTUMWA        FOG       48  46  93 SW3       30.05S VSB 1/4
WASHINGTON *   PTCLDY    55  55 100 CALM      30.05S
$$

ABBREVIATIONS USED IN REMARKS
   TC - TEMPERATURES IN CELSIUS
  WCI - WIND CHILL INDEX
   HX - HEAT INDEX
  VSB - VISIBILITY
$$




USA.gov is the U.S. government's official web portal to all federal, state and local government web resources and services.